Tracking 30692 objects as of 16-Jun-2025
HD Live streaming from Space Station
objects crossing your sky now

METEOR 1-5 DEB

Track METEOR 1-5 DEB now!
10-day predictions


NORAD ID: 58397
Int'l Code: 1970-047D
Perigee: 824.1 km
Apogee: 867.6 km
Inclination: 81.2 °
Period: 101.7 minutes
Semi major axis: 7216 km
RCS: Unknown
Launch date: June 23, 1970
Source: Commonwealth of Independent States (former USSR) (CIS)
Launch site: PLESETSK MISSILE AND SPACE COMPLEX (PKMTR)

Note: This is SATELLITE DEBRIS
Your satellite tracking list
Your tracking list is empty




NASA's NSSDC Master Catalog

Two Line Element Set (TLE):
1 58397U 70047D   25166.65285988  .00000583  00000-0  28761-3 0  9994
2 58397  81.2162 237.8530 0030129  22.9886 337.2629 14.16064590 84563
Source of the keplerian elements: AFSPC